User: anonymous   Login
Location: Caltech
(34.1382°N, 118.1253°W)
Time: 13:47:22
(UTC-08:00)
Language:

GPS 2-04 Rocket1 - Orbit

View from above orbital plane
View from above orbital plane
View from above satellite
View from above satellite

Ground track
Ground track

The orbit data is extracted from the following two-line orbital elements,

1 20303U 89085B   16340.90823810 +.00001624 +00000-0 +60017-4 0  9994
2 20303 035.6293 165.6874 0110135 264.6105 094.2048 15.22484712471601
Epoch (UTC): 05 December 2016 21:47:51
Eccentricity: 0.0110135
inclination: 35.6293°
perigee height: 422 km
apogee height: 574 km
right ascension of ascending node: 165.6874°
argument of perigee: 264.6105°
revolutions per day: 15.22484712
mean anomaly at epoch: 94.2048°
orbit number at epoch: 47160

The dashed part of the orbit path shows where the satellite is in the earth's shadow,  

DLR